Sample Charts Sidebar
> Live data! Your data is on the web site for you to access within minutes
 
> Detailed data is easily downloaded as data file, which can be opened with Excel
 
> Charts can be customised if necessary
  Chart 1
 

(A maximum of 50 rows are displayed here. Use "Export Data" to see all rows in the date range.)
Date Collected Temp
(Celcius)
WindChill
(Celcius)
WindSpeed
(km/hr)
Gust
(km/hr)
WindDir
(degrees)
2018-07-23 02:00 8.1 4.0 7 19 198
2018-07-23 01:00 8.3 3.0 8 24 199
2018-07-23 00:00 8.1 4.5 6 16 191
2018-07-22 23:00 8.3 4.4 7 18 195
2018-07-22 22:00 8.3 5.6 5 15 192
2018-07-22 21:00 8.1 5.3 5 15 198
2018-07-22 20:00 8.0 3.0 8 18 198
2018-07-22 19:00 8.3 3.9 7 18 205
2018-07-22 18:00 8.5 3.7 7 17 201
2018-07-22 17:00 8.8 5.2 6 15 212
2018-07-22 16:00 9.1 5.2 7 15 213
2018-07-22 15:00 9.6 5.7 7 15 214
2018-07-22 14:00 10.1 4.3 9 21 219
2018-07-22 13:00 11.1 6.6 8 17 216
2018-07-22 12:00 13.1 10.6 6 15 11
2018-07-22 11:00 12.9 12.7 2 5 71
2018-07-22 10:00 12.8 12.5 2 5 78
2018-07-22 09:00 12.5 11.4 4 8 43
2018-07-22 08:00 12.2 11.9 3 6 49
2018-07-22 07:00 12.4 11.8 3 8 25
2018-07-22 06:00 13.8 12.3 4 13 357
2018-07-22 05:00 13.3 10.7 6 15 341
2018-07-22 04:00 13.3 11.2 5 16 345
2018-07-22 03:00 13.6 10.2 7 18 338
2018-07-22 02:00 13.8 11.4 5 16 342
2018-07-22 01:00 13.3 11.0 5 12 14
2018-07-22 00:00 12.7 11.7 3 8 11
2018-07-21 23:00 12.0 11.8 3 11 36
2018-07-21 22:00 11.0 9.0 4 11 357
2018-07-21 21:00 10.0 9.7 2 8 52
2018-07-21 20:00 10.2 10.0 3 6 55
2018-07-21 19:00 11.0 10.5 3 7 41
2018-07-21 18:00 11.6 11.0 3 6 37
2018-07-21 17:00 12.9 11.7 4 11 19
2018-07-21 16:00 14.1 12.2 5 12 355
2018-07-21 15:00 14.4 12.4 5 14 35
2018-07-21 14:00 14.2 12.2 5 14 14
2018-07-21 13:00 14.3 12.7 5 11 20
2018-07-21 12:00 14.0 12.1 5 12 2
2018-07-21 11:00 12.5 11.1 4 8 34
2018-07-21 10:00 8.9 7.7 4 8 52
2018-07-21 09:00 7.6 5.9 4 8 58
2018-07-21 08:00 5.3 3.7 4 8 45
2018-07-21 07:00 5.1 4.8 2 5 55
2018-07-21 06:00 5.3 5.4 2 5 31
2018-07-21 05:00 7.0 7.0 1 3 214
2018-07-21 04:00 8.4 7.9 3 8 188
2018-07-21 03:00 9.1 6.9 5 13 204
2018-07-21 02:00 9.0 4.5 7 16 206
2018-07-21 01:00 8.9 5.4 6 15 201